ПЛАНИНАРСКИ ФОРУМ Форуми ПЛАНИНАРСКИ ФОРУМ
всичко за планината
Регистрирайте сеТърсенеВъпроси/ОтговориПотребителиПотребителски групиВход
Урановите мини в нашите планини
Иди на страница Предишна  1, 2, 3 ... 58, 59, 60, 61, 62, 63  Следваща
 
Напишете отговор    ПЛАНИНАРСКИ ФОРУМ Форуми » Обща дискусия Предишната тема
Следващата тема
Урановите мини в нашите планини
Автор Съобщение
vedrin



Регистриран на: 25 Авг 2010
Мнения: 3853
Местожителство: София

Мнение Отговорете с цитат
bashtata написа:
Сега сериозно: само на тези батерии от снимката ли разчита прибора?

Да, това му е захранването. Разработчиците твърдят, че един комплект батерии е достатъчен за поне 2 години непрекъсната работа на уреда. Тези, с които го получих от магазина, обаче, бяха напълно изтощени.

_________________
"Caminante son tus huellas el camino y nada más;
caminante, no hay camino, se hace camino al andar."
-- Antonio Machado
Съб Яну 25, 2020 8:23 am Вижте профила на потребителя Изпратете лично съобщение Посетете сайта на потребителя
vedrin



Регистриран на: 25 Авг 2010
Мнения: 3853
Местожителство: София

Мнение Отговорете с цитат
След едно денонощие мерене:



Код:
recorded;RADON_SHORT_TERM_AVG Bq/m3;TEMP °C;HUMIDITY %
2020-01-24T00:40:32;0.00;20.60;33.00
2020-01-24T01:40:32;0.00;20.20;32.50
2020-01-24T02:40:32;0.00;20.20;32.50
2020-01-24T03:40:32;0.00;20.00;33.00
2020-01-24T04:40:32;4.00;20.00;33.50
2020-01-24T05:40:32;4.00;20.40;34.00
2020-01-24T06:40:32;4.00;20.60;38.50
2020-01-24T07:40:32;6.00;20.40;38.00
2020-01-24T08:40:32;9.00;20.60;37.50
2020-01-24T09:40:32;12.00;21.00;36.50
2020-01-24T10:40:32;12.00;21.60;35.00
2020-01-24T11:40:32;16.00;21.80;33.00
2020-01-24T12:40:32;19.00;22.00;32.50
2020-01-24T13:40:32;19.00;22.20;33.00
2020-01-24T14:40:32;19.00;22.20;33.00
2020-01-24T15:40:32;19.00;21.60;32.00
2020-01-24T16:40:32;21.00;21.20;33.00
2020-01-24T17:40:32;23.00;21.00;38.00
2020-01-24T18:40:32;25.00;21.00;35.50
2020-01-24T19:40:32;25.00;21.00;35.50
2020-01-24T20:40:32;30.00;20.80;35.50
2020-01-24T21:40:32;31.00;20.80;36.00
2020-01-24T22:40:32;35.00;20.80;36.00
2020-01-24T23:40:32;35.00;20.60;35.50
2020-01-25T00:40:32;35.00;20.60;35.50
2020-01-25T01:40:32;35.00;20.60;35.50
2020-01-25T02:40:32;38.00;20.40;35.50
2020-01-25T03:40:32;40.00;20.40;35.50
2020-01-25T04:40:32;38.00;20.20;35.50


_________________
"Caminante son tus huellas el camino y nada más;
caminante, no hay camino, se hace camino al andar."
-- Antonio Machado
Съб Яну 25, 2020 8:34 am Вижте профила на потребителя Изпратете лично съобщение Посетете сайта на потребителя
i80386



Регистриран на: 24 Яну 2019
Мнения: 14

Мнение Отговорете с цитат
Ведрин, честито за уреда! Относно сензора за радон, знаеш ли дали и в другия модел - Wave plus се използва същият? Според спецификациите твоят модел е с по-висок горен праг - 20,000 срещу 9,999 bq/m3 за Wave plus. Като точност са дали еднакви стойности.
Нед Яну 26, 2020 5:00 pm Вижте профила на потребителя Изпратете лично съобщение
vedrin



Регистриран на: 25 Авг 2010
Мнения: 3853
Местожителство: София

Мнение Отговорете с цитат
i80386 написа:
Ведрин, честито за уреда!

Благодаря!
i80386 написа:
Относно сензора за радон, знаеш ли дали и в другия модел - Wave plus се използва същият? Според спецификациите твоят модел е с по-висок горен праг - 20,000 срещу 9,999 bq/m3 за Wave plus. Като точност са дали еднакви стойности.

Предполагам, че сензорите за радон са еднакви във всичките им модели уреди, не само Wave и Wave plus. Имат патент за тях, от който личат някои характеристики на тези сензори:

https://patents.google.com/patent/US10534094B2/en

Единствената видима разлика е, че в Corentium Pro са монтирани 4 такива сензора.

Между другото данните в актуалните онлайн спецификации на Wave (обхват до 20000 Bq/m3) се различават от написаното в оригиналната листовка, която e приложена към моя уред (обхват до 50000 Bq/m3):



Възможно е вграденият в уреда софтуер за обработка на сигнала от сензора да е с различни характеристики в различни модели или дори версии за даден уред.

Все пак, което и от трите числа да е вярно, обхватът би бил предостатъчен за измервания в домашни условия.

_________________
"Caminante son tus huellas el camino y nada más;
caminante, no hay camino, se hace camino al andar."
-- Antonio Machado
Нед Яну 26, 2020 6:15 pm Вижте профила на потребителя Изпратете лично съобщение Посетете сайта на потребителя
bashtata



Регистриран на: 01 Юни 2017
Мнения: 79
Местожителство: Sofia

Мнение Отговорете с цитат
Ведрин, кога ще видим по-нова графика от твоите измервания на радон?
Нед Яну 26, 2020 10:26 pm Вижте профила на потребителя Изпратете лично съобщение Изпрати мейла Посетете сайта на потребителя
vedrin



Регистриран на: 25 Авг 2010
Мнения: 3853
Местожителство: София

Мнение Отговорете с цитат


Би могло да се приеме, че от 48-мия час нататък е достигнато плато. Максимумите са до 68 Bq/m3. Вляво е средната стойност за 7-дневен период -- тя тепърва ще расте още. За последните 24 часа средната стойност е 65 Bq/m3. Общо взето приемливи стойности, но сякаш една идея по-високи от очакваните като за 6-ти етаж в сграда на високо място и в жилище със стара (проветрива) дървена дограма...

Ето и натрупанието до този момент сурови данни:

Код:
recorded;RADON_SHORT_TERM_AVG Bq/m3;TEMP °C;HUMIDITY %
2020-01-24T00:40:32;0.00;20.60;33.00
2020-01-24T01:40:32;0.00;20.20;32.50
2020-01-24T02:40:32;0.00;20.20;32.50
2020-01-24T03:40:32;0.00;20.00;33.00
2020-01-24T04:40:32;4.00;20.00;33.50
2020-01-24T05:40:32;4.00;20.40;34.00
2020-01-24T06:40:32;4.00;20.60;38.50
2020-01-24T07:40:32;6.00;20.40;38.00
2020-01-24T08:40:32;9.00;20.60;37.50
2020-01-24T09:40:32;12.00;21.00;36.50
2020-01-24T10:40:32;12.00;21.60;35.00
2020-01-24T11:40:32;16.00;21.80;33.00
2020-01-24T12:40:32;19.00;22.00;32.50
2020-01-24T13:40:32;19.00;22.20;33.00
2020-01-24T14:40:32;19.00;22.20;33.00
2020-01-24T15:40:32;19.00;21.60;32.00
2020-01-24T16:40:32;21.00;21.20;33.00
2020-01-24T17:40:32;23.00;21.00;38.00
2020-01-24T18:40:32;25.00;21.00;35.50
2020-01-24T19:40:32;25.00;21.00;35.50
2020-01-24T20:40:32;30.00;20.80;35.50
2020-01-24T21:40:32;31.00;20.80;36.00
2020-01-24T22:40:32;35.00;20.80;36.00
2020-01-24T23:40:32;35.00;20.60;35.50
2020-01-25T00:40:32;35.00;20.60;35.50
2020-01-25T01:40:32;35.00;20.60;35.50
2020-01-25T02:40:32;38.00;20.40;35.50
2020-01-25T03:40:32;40.00;20.40;35.50
2020-01-25T04:40:32;38.00;20.20;35.50
2020-01-25T05:40:32;45.00;20.20;38.00
2020-01-25T06:40:32;53.00;20.20;40.50
2020-01-25T07:40:32;55.00;20.20;40.00
2020-01-25T08:40:32;55.00;20.40;39.00
2020-01-25T09:40:32;55.00;20.60;39.00
2020-01-25T10:40:32;60.00;21.00;38.50
2020-01-25T11:40:32;60.00;21.40;38.50
2020-01-25T12:40:32;60.00;21.60;38.50
2020-01-25T13:40:32;64.00;21.80;38.50
2020-01-25T14:40:32;66.00;21.80;38.00
2020-01-25T15:40:32;67.00;21.20;38.00
2020-01-25T16:40:32;66.00;21.00;41.00
2020-01-25T17:40:32;64.00;21.00;43.50
2020-01-25T18:40:32;63.00;21.00;43.00
2020-01-25T19:40:32;63.00;21.00;42.50
2020-01-25T20:40:32;60.00;20.80;43.00
2020-01-25T21:40:32;60.00;20.80;43.50
2020-01-25T22:40:32;60.00;20.80;43.00
2020-01-25T23:40:32;61.00;20.80;43.00
2020-01-26T00:40:32;64.00;20.80;42.50
2020-01-26T01:40:32;68.00;20.60;42.00
2020-01-26T02:40:32;68.00;20.60;42.00
2020-01-26T03:40:32;67.00;20.60;41.50
2020-01-26T04:40:32;67.00;20.60;41.50
2020-01-26T05:40:32;62.00;20.80;42.50
2020-01-26T06:40:32;57.00;21.00;42.50
2020-01-26T07:40:32;57.00;21.00;43.50
2020-01-26T08:40:32;58.00;21.20;43.50
2020-01-26T09:40:32;58.00;21.60;43.00
2020-01-26T10:40:32;55.00;22.00;43.00
2020-01-26T11:40:32;60.00;22.00;43.00
2020-01-26T12:40:32;62.00;22.40;43.00
2020-01-26T13:40:32;60.00;22.60;42.50
2020-01-26T14:40:32;62.00;22.00;42.00
2020-01-26T15:40:32;62.00;21.80;41.50
2020-01-26T16:40:32;62.00;21.80;43.50
2020-01-26T17:40:32;65.00;22.20;45.00
2020-01-26T18:40:32;65.00;22.20;45.50


_________________
"Caminante son tus huellas el camino y nada más;
caminante, no hay camino, se hace camino al andar."
-- Antonio Machado
Нед Яну 26, 2020 10:41 pm Вижте профила на потребителя Изпратете лично съобщение Посетете сайта на потребителя
vedrin



Регистриран на: 25 Авг 2010
Мнения: 3853
Местожителство: София

Мнение Airthings Wave в разглобено състояние Отговорете с цитат

Източник: https://tiktogram.com/media/1434959305953536536_175890224/BPp_-LSgGoY

Черната част с бяла и червена жица е високоговорител. След обновяване на firmware-a уредът ме поздрави и се представи. Smile

Предполагам, че при надхвърляне на зададени прагови стойности би прозвучало и някакво предупреждение.

_________________
"Caminante son tus huellas el camino y nada más;
caminante, no hay camino, se hace camino al andar."
-- Antonio Machado
Нед Яну 26, 2020 11:14 pm Вижте профила на потребителя Изпратете лично съобщение Посетете сайта на потребителя
vedrin



Регистриран на: 25 Авг 2010
Мнения: 3853
Местожителство: София

Мнение Отговорете с цитат
Все още не успявам да открия достатъчно подробности за използвания сензор за радон. На снимката по-долу се вижда металната дифузионна камера в разглобен вид:


Източник: https://tiktogram.com/media/1607478260211903523_5537765167/BZO6PX8F-wj

_________________
"Caminante son tus huellas el camino y nada más;
caminante, no hay camino, se hace camino al andar."
-- Antonio Machado
Нед Яну 26, 2020 11:41 pm Вижте профила на потребителя Изпратете лично съобщение Посетете сайта на потребителя
vedrin



Регистриран на: 25 Авг 2010
Мнения: 3853
Местожителство: София

Мнение Отговорете с цитат
AirThings Wave е с микроконтролер MSP430F6724.

AirThings Wave+ е с микроконтролер MSP430F5253.

А ето и как изглежда използвания в сензора за радон и в двата модела уреди PIN фотодиод 18792-2A:


Източник: https://blog.donbowman.ca/2017/12/22/the-internet-of-radon-things/

_________________
"Caminante son tus huellas el camino y nada más;
caminante, no hay camino, se hace camino al andar."
-- Antonio Machado
Пон Яну 27, 2020 12:24 am Вижте профила на потребителя Изпратете лично съобщение Посетете сайта на потребителя
bashtata



Регистриран на: 01 Юни 2017
Мнения: 79
Местожителство: Sofia

Мнение Re: Airthings Wave в разглобено състояние Отговорете с цитат
Голями майстори! Страхотна работа! Респект! Благородна завист!
Пон Яну 27, 2020 9:07 am Вижте профила на потребителя Изпратете лично съобщение Изпрати мейла Посетете сайта на потребителя
gwgw



Регистриран на: 08 Фев 2019
Мнения: 210

Мнение Отговорете с цитат
Как е възможно на шести етаж да има повече радон отколкото на трети...освен част от него да идва от строителните материали наистина...странна работа. Но те радоновите измервания са странна работа, аз за всичките спорадични внезапни превишения които траят половин-един ден, нямам никакво обяснение.
Пон Яну 27, 2020 11:14 am Вижте профила на потребителя Изпратете лично съобщение
vedrin



Регистриран на: 25 Авг 2010
Мнения: 3853
Местожителство: София

Мнение Отговорете с цитат
«Различава ли се точността на Wave от тази на Home?

Home и Wave използват подобен метод на измерване и точността им се очаква да бъде еднаква при включване.

Все пак, понеже Wave има сензори за температура и влажност, би могло да се окаже възможно да увеличим точността на измерването на концентрацията на радон с Wave, така че да достигнем подобно ниво на точност като това на Plus. Ако това бъде имплементнато, собствениците на Wave устройства ще получат по-висока точност на измерването с обновление посредством мобилното приложение.»

Източник: https://support.airthings.com/hc/en-us/articles/115001265405-Does-the-accuracy-of-the-Wave-vs-the-Home-differ-

Не става ясно кога е било написан горния текст. Инсталирах обновление на fiirmware-a на Wave, но не знам дали то съдържа гореспоменатото усъвършенстване.

Любопитно е как биха могли да повишат точността вземайки предвид температурата и влажността. Допускам, че, отчитайки тези параметри, биха могли да филтрират по-добре шума в сензора.

_________________
"Caminante son tus huellas el camino y nada más;
caminante, no hay camino, se hace camino al andar."
-- Antonio Machado
Пон Яну 27, 2020 6:44 pm Вижте профила на потребителя Изпратете лично съобщение Посетете сайта на потребителя
vedrin



Регистриран на: 25 Авг 2010
Мнения: 3853
Местожителство: София

Мнение Отговорете с цитат
gwgw написа:
Как е възможно на шести етаж да има повече радон отколкото на трети...освен част от него да идва от строителните материали наистина...странна работа.

Сградата е висока (20-етажна), поради което е възможно да има по-силно изразен "коминен ефект". Строена е в средата на 70-те и има железобетонна конструкция с тухлени преградни стени. Свързана е към ТЕЦ "Изток".

В днешния дъждовен ден в София наблюдаваме осезаем спад в отчетената концентрация на радон, в условията на нарастваща влажност и що-годе постоянна температура:



_________________
"Caminante son tus huellas el camino y nada más;
caminante, no hay camino, se hace camino al andar."
-- Antonio Machado


Последната промяна е направена от vedrin на Вто Яну 28, 2020 8:39 pm; мнението е било променяно общо 1 път
Пон Яну 27, 2020 7:18 pm Вижте профила на потребителя Изпратете лично съобщение Посетете сайта на потребителя
gwgw



Регистриран на: 08 Фев 2019
Мнения: 210

Мнение Отговорете с цитат
Би било интересно ако забележиш при теб от тези странни превишения, да сравним с резултатите които получавам тук. Предполагам причините са си някакви не толкова локални и на две локации в София ще се установи връзка.
Вто Яну 28, 2020 1:37 am Вижте профила на потребителя Изпратете лично съобщение
bashtata



Регистриран на: 01 Юни 2017
Мнения: 79
Местожителство: Sofia

Мнение Отговорете с цитат
Моля ви пожертвайте една седмица от собствените планове и ги съберете на едно и също място без значение къде.
Вто Яну 28, 2020 2:52 pm Вижте профила на потребителя Изпратете лично съобщение Изпрати мейла Посетете сайта на потребителя
Покажи мнения от преди:    
Напишете отговор    ПЛАНИНАРСКИ ФОРУМ Форуми » Обща дискусия Часовете са според зоната GMT + 3 Часа
Иди на страница Предишна  1, 2, 3 ... 58, 59, 60, 61, 62, 63  Следваща
Страница 59 от 63

 
Идете на: 
Не Можете да пускате нови теми
Не Можете да отговаряте на темите
Не Можете да променяте съобщенията си
Не Можете да изтривате съобщенията си
Не Можете да гласувате в анкети
 

ВРЕМЕТО:

вр.Ботев

вр.Мургаш

вр.Мусала

гр.Сандански

Черни връх

 Вземи рекламен банер   


 

Никаква част от материалите и снимките на този форум
не може да бъде копирана и използвана
без изричното съгласие на автора, който ги е публикувал.



Powered by phpBB © 2001, 2005 phpBB Group
Design by Freestyle XL / Flowers Online.Translation by: Boby Dimitrov